Location: River House Observatory
(37.8577°N, 76.3548°W)
Time: 08:01:05
(UTC-05:00)

Daily predictions for brighter satellites

Satellite Brightness Start Highest point End
(mag) Time Altitude Azimuth Time Altitude Azimuth Time Altitude Azimuth
Milstar 3 3.9 17:31:08 10° WSW 17:37:37 39° S 17:43:57 10° ESE
Meteor 1-21 Rocket 4.4 17:32:09 10° S 17:38:03 76° E 17:43:56 10° NNE
Cosmos 2298 Rocket 4.2 17:32:53 10° NNW 17:38:13 85° WSW 17:43:30 10° SSE
Cosmos 1743 Rocket 3.9 17:35:36 10° SSE 17:39:51 46° E 17:44:09 10° NNE
Cosmos 2360 Rocket 3.4 17:39:37 10° SW 17:44:55 42° WNW 17:50:15 10° N
Atlas Centaur 2 3.6 17:42:18 10° WSW 17:46:49 28° SSW 17:50:35 10° SE
Cosmos 1937 Rocket 3.5 17:43:04 10° NNW 17:48:16 90° ENE 17:53:30 10° SSE
Cosmos 1328 Rocket 3.7 17:44:10 10° N 17:48:30 52° E 17:52:49 10° SSE
CENTAUR R/B 2.7 17:42:35 10° SW 17:48:34 80° NW 17:55:20 10° NNE
ALOS 4.1 17:51:59 10° ENE 17:53:15 11° ENE 17:54:32 10° NE
Cosmos 1515 Rocket 3.9 17:49:52 10° N 17:54:09 44° E 17:58:24 10° SSE
Cosmos 2333 Rocket 2.6 17:49:43 10° S 17:55:00 43° ESE 18:00:18 10° NE
Cosmos 44 4.4 17:50:41 10° S 17:55:16 30° ESE 17:59:39 10° NE
Cosmos 1634 Rocket 4.2 17:49:47 10° N 17:55:46 49° E 18:01:42 10° SSE
SKYMED 2 3.7 17:52:13 10° NNE 17:56:29 53° E 18:00:43 10° S
Cosmos 371 Rocket 3.5 17:55:11 10° S 17:59:49 51° ESE 18:04:29 10° NNE
Cosmos 2151 3.7 17:56:13 10° SSE 17:59:58 32° E 18:03:43 10° NNE
Aureole 2 Rocket 4.4 17:59:03 10° SE 18:01:00 14° E 18:01:49 13° E
Cosmos 1500 Rocket 3.5 18:02:57 10° S 18:07:13 67° E 18:11:32 10° NNE
Cosmos 1151 Rocket 3.4 18:04:10 10° N 18:08:13 41° E 18:12:15 10° SSE
Lacrosse 5 4.1 18:08:53 10° WNW 18:11:52 15° NNW 18:14:50 10° N
CZ-2C R/B 4.1 18:07:12 10° SSW 18:11:55 39° W 18:16:30 10° NNW
Cosmos 1340 Rocket 3.9 18:09:10 10° SE 18:12:18 23° E 18:14:01 17° NE
Cosmos 2219 Rocket 2.2 18:06:57 10° SSW 18:12:36 81° ESE 18:18:15 10° NNE
Cosmos 389 Rocket 4.2 18:10:15 10° NNW 18:13:35 37° W 18:16:52 10° SSW
Abrixas rocket 3.0 18:11:21 10° WNW 18:14:36 51° SW 18:17:50 10° SE
MSX 4.4 18:09:09 10° S 18:14:47 62° WSW 18:20:28 10° NNW
METEOR-M 4.5 18:12:34 10° SE 18:17:33 41° ENE 18:22:33 10° N
Cosmos 2278 Rocket 2.6 18:12:42 10° N 18:18:00 39° ENE 18:23:16 10° SE
Cosmos 44 Rocket 3.3 18:13:11 10° SSW 18:18:20 80° ESE 18:23:07 12° NNE
Meteor 2-10 4.4 18:15:51 10° N 18:20:33 37° ENE 18:25:21 10° SE
SL-14 R/B 3.2 18:19:51 10° S 18:23:40 61° E 18:27:34 10° NNE
NOSS 0 Rocket 3.9 18:19:17 10° SSW 18:25:29 74° ESE 18:31:42 10° NNE
OAO 3 Rocket 4.3 18:21:35 10° W 18:26:10 41° SSW 18:30:36 10° SE
OTV 4 0.3 18:25:14 10° W 18:28:11 89° SSW 18:29:10 38° E
Cosmos 1844 3.7 18:22:44 10° NNW 18:28:32 83° ENE 18:34:19 10° SSE
Cosmos 1484 Rocket 3.7 18:25:46 10° S 18:29:32 51° W 18:33:24 10° NNW
Resurs 01 Rocket 3.1 18:31:09 20° NE 18:31:09 20° NE 18:33:11 10° NNE
COSMOS 2428 4.1 18:30:23 10° SW 18:35:37 36° WNW 18:40:53 10° N
Cosmos 372 Rocket 4.1 18:31:57 10° N 18:36:52 46° ENE 18:41:45 10° SE
Cosmos 1626 3.9 18:35:12 10° SSE 18:36:25 17° SE 18:36:25 17° SE
Cosmos 2237 Rocket 2.1 18:36:05 10° SSW 18:41:42 84° ESE 18:46:42 14° NNE
COSMO-SKYMED 1 3.8 18:40:20 10° N 18:44:26 41° WNW 18:48:30 10° SW
SL-16 R/B 2.7 18:40:31 10° S 18:45:38 36° ESE 18:46:58 32° ENE
Cosmos 2084 3.8 18:43:00 10° SW 18:46:50 52° NW 18:48:51 24° NNE
Cosmos 783 Rocket 4.4 18:42:20 10° S 18:47:37 75° ESE 18:51:41 18° NNE
Cosmos 304 Rocket 4.0 18:43:45 10° S 18:48:18 45° ESE 18:49:27 38° ENE
Lacrosse 5 rocket 2.9 18:45:18 10° NNW 18:47:13 20° N 18:47:13 20° N
NOAA 12 4.0 18:43:19 10° SSE 18:48:34 88° ENE 18:53:50 10° NNW
Cosmos 2279 Rocket 3.9 18:43:10 10° N 18:49:23 78° E 18:55:37 10° S
Cosmos 540 Rocket 3.5 18:44:27 10° SSW 18:49:37 79° WNW 18:54:24 12° NNE
USA 215 3.2 18:43:12 10° SE 18:49:47 88° NE 18:56:22 10° NW
Hubble Space Telescope 3.3 18:47:26 10° SW 18:49:52 15° SSW 18:52:19 10° SSE
Cosmos 1300 3.1 18:46:32 10° NNW 18:50:20 62° W 18:54:06 10° S
Cosmos 2297 4.2 18:50:30 10° N 18:55:46 37° ENE 18:55:55 37° ENE
Cosmos 1666 Rocket 4.2 18:53:50 10° SSE 18:56:46 35° SE 18:56:46 35° SE
Cosmos 1726 3.3 18:54:39 10° NNW 18:58:15 45° W 19:01:52 10° SSW
Haruka 4.3 18:54:47 10° WSW 18:59:01 51° SSE 19:04:42 26° ESE
Meteor 1-11 4.4 18:55:34 10° SSW 19:01:12 73° W 19:06:56 10° N
Cosmos 1125 Rocket 3.8 18:56:51 10° NNW 19:02:02 69° WSW 19:07:10 10° S
Cosmos 1461 4.0 18:59:58 10° S 19:02:39 30° SSE 19:02:39 30° SSE
Cosmos 2180 Rocket 4.4 18:58:59 10° N 19:05:10 85° E 19:11:23 10° S
Nadezhda 4 Rocket 3.9 19:02:01 10° S 19:08:07 62° E 19:13:54 12° NNE
Spot 2 Rocket 3.4 19:05:49 10° SSE 19:10:48 64° ENE 19:15:49 10° N
Cosmos 1538 Rocket 4.0 19:11:15 10° S 19:16:07 59° ESE 19:16:07 59° ESE
Cosmos 2058 4.3 19:12:49 10° SSW 19:16:39 38° W 19:20:15 11° N
SJ-6B 3.8 19:12:54 10° S 19:16:47 48° W 19:20:47 10° NNW
FengYun 1-2 T 4.1 19:11:17 10° SSE 19:16:52 82° ENE 19:22:26 10° NNW
Cosmos 1092 Rocket 3.9 19:18:12 10° S 19:24:23 60° E 19:24:31 60° E
USA 229 DEB 4.3 19:21:33 10° S 19:26:32 38° SE 19:26:32 38° SE
USA 229 4.3 19:21:40 10° S 19:26:34 37° SE 19:26:34 37° SE
ALOS 2.4 19:25:24 10° S 19:30:02 73° WSW 19:34:43 10° NNW
Aureole 2 Rocket 4.4 19:32:53 10° SW 19:35:45 30° WNW 19:35:45 30° WNW
Cosmos 2333 Rocket 4.1 19:34:45 10° WSW 19:39:24 26° WNW 19:43:40 12° N
FENGYUN 3A 4.0 19:37:15 10° S 19:42:31 62° W 19:47:51 10° NNW
Cosmos 2278 Rocket 4.1 19:57:10 10° NW 20:01:51 27° WSW 20:06:31 10° SSW
Resurs 01 Rocket 4.1 20:08:42 16° NW 20:08:42 16° NW 20:09:52 10° NW
H-2A ROCKET BODY 3.9 20:16:06 10° W 20:25:47 33° SW 20:25:47 33° SW
SL-16 R/B 3.9 20:24:52 10° WSW 20:28:55 28° WNW 20:28:55 28° WNW
